Location: Jastrz?bniki
(50.3667°N, 20.3833°E)
Time: 11:07:10
(UTC+00:00)

Cosmos 1844 - Pass Details

Date: 05 August 2024
Orbit: 824 x 865 km, 70.9° (Epoch: 10 September)

Event Time Altitude Azimuth Distance (km) Brightness Sun altitude
Rises 00:56:38 0° 325° (NW) 3,404 7.2 -16.7°
Reaches altitude 10° 00:59:15 10° 317° (NW) 2,459 6.3 -16.5°
Maximum altitude 01:04:21 36° 253° (WSW) 1,287 4.3 -16.1°
Enters shadow 01:06:47 25° 207° (SSW) 1,629 4.6 -15.8°
